DW9672 Weather Reports


Display with metric or nautical units.
time (UTC)temp
F
wind
direction
speed
MPH
gust
MPH
rain 1hr
in
rain 24hr
in
rain mn
in
humidity
%
barometer
mb
20260502130105 45 67 0.0 0.0 0.00 0.00 0.00 77 1022.5
20260502123043 42 59 0.0 0.0 0.00 0.00 0.00 88 1022.4
20260502121527 40 59 0.0 0.0 0.00 0.00 0.00 92 1022.4
20260502114511 37 59 0.0 0.0 0.00 0.00 0.00 95 1022.1
20260502113009 36 59 0.0 0.0 0.00 0.00 0.00 92 1022.0
20260502111508 36 59 0.0 0.0 0.00 0.00 0.00 91 1021.9
20260502110006 36 59 0.0 0.0 0.00 0.01 0.00 91 1021.8
20260502104504 37 59 0.0 0.0 0.00 0.01 0.00 91 1021.7
20260502103006 38 59 0.0 0.0 0.00 0.01 0.00 90 1021.9
20260502101600 38 59 0.0 0.0 0.00 0.01 0.00 89 1021.9
20260502100103 38 59 0.0 0.0 0.00 0.01 0.00 88 1021.9
20260502091522 39 59 0.0 0.0 0.00 0.01 0.00 88 1021.7
20260502071505 41 74 0.0 3.0 0.00 0.01 0.00 80 1021.5
20260502070004 41 116 0.0 3.0 0.00 0.01 0.00 81 1021.7
20260502064559 41 126 0.0 3.0 0.00 0.01 0.00 81 1021.7
20260502063051 41 136 0.0 4.0 0.00 0.01 0.00 83 1021.9
20260502061551 40 94 0.0 5.0 0.00 0.01 0.00 82 1021.9
20260502060051 40 91 0.0 2.0 0.00 0.01 0.00 82 1022.0
20260502054556 40 110 0.0 3.0 0.00 0.01 0.00 79 1022.0
20260502053047 41 88 1.0 5.0 0.00 0.01 0.00 78 1022.0
20260502051545 41 99 1.0 4.0 0.00 0.01 0.00 77 1021.9
20260502050044 41 84 1.0 7.0 0.00 0.01 0.00 77 1021.9
20260502044533 42 126 1.0 6.0 0.00 0.01 0.00 77 1021.7
20260502043024 42 117 2.0 8.0 0.00 0.01 0.00 77 1021.7
20260502041505 42 108 2.0 7.0 0.00 0.01 0.00 77 1021.6
20260502040004 43 142 1.0 11.0 0.00 0.03 0.00 78 1021.6
20260502034543 43 109 3.0 7.0 0.00 0.03 0.00 78 1021.5
20260502033040 44 85 3.0 9.0 0.00 0.03 0.00 79 1021.3
20260502031520 44 66 1.0 7.0 0.00 0.03 0.00 80 1021.0
20260502030018 43 49 0.0 6.0 0.00 0.03 0.00 82 1020.8
20260502024558 43 98 0.0 0.0 0.00 0.03 0.00 83 1020.4
20260502023057 44 98 0.0 0.0 0.00 0.03 0.00 81 1020.3
20260502021538 44 98 0.0 0.0 0.00 0.03 0.00 80 1020.1
20260502020034 45 98 0.0 0.0 0.00 0.03 0.03 77 1020.0
20260502014537 46 98 0.0 0.0 0.00 0.03 0.03 76 1019.7
20260502013019 46 98 0.0 0.0 0.00 0.03 0.03 75 1019.5
20260502011518 47 98 0.0 0.0 0.00 0.03 0.03 72 1019.2
20260502010017 48 98 0.0 0.0 0.00 0.03 0.03 70 1019.1
20260502004522 48 98 0.0 0.0 0.00 0.03 0.03 69 1018.9
20260502003017 49 97 0.0 3.0 0.00 0.03 0.03 67 1018.8
20260502001528 49 40 1.0 7.0 0.00 0.03 0.03 67 1018.8
20260502000015 49 83 2.0 6.0 0.00 0.03 0.03 66 1018.7
20260501234558 49 96 0.0 5.0 0.00 0.03 0.03 67 1018.7
20260501233059 49 29 2.0 8.0 0.00 0.03 0.03 66 1018.7
20260501231540 50 28 3.0 12.0 0.00 0.03 0.03 62 1018.9
20260501230040 53 37 6.0 19.0 0.00 0.03 0.03 57 1018.8
20260501224521 53 28 0.0 5.0 0.00 0.03 0.03 55 1018.6
20260501223022 53 17 0.0 8.0 0.00 0.03 0.03 54 1018.9
20260501221503 54 40 1.0 6.0 0.00 0.03 0.03 53 1018.9
20260501220001 53 38 0.0 9.0 0.00 0.03 0.03 53 1018.7
20260501214544 53 31 3.0 6.0 0.00 0.03 0.03 56 1018.9
20260501213048 52 22 2.0 7.0 0.00 0.03 0.03 59 1019.0
20260501211526 52 48 1.0 7.0 0.00 0.03 0.03 54 1019.1
20260501210032 53 266 3.0 9.0 0.00 0.03 0.03 56 1019.2
20260501204507 52 30 3.0 8.0 0.00 0.03 0.03 58 1019.2
20260501203007 52 355 4.0 12.0 0.00 0.03 0.03 58 1019.3
20260501201549 51 46 6.0 10.0 0.00 0.03 0.03 58 1019.3
20260501200049 52 10 3.0 8.0 0.00 0.03 0.03 57 1019.5
20260501194532 52 43 2.0 6.0 0.00 0.03 0.03 54 1019.4
20260501193030 52 46 3.0 9.0 0.00 0.03 0.03 54 1019.2
20260501191513 53 5 5.0 13.0 0.00 0.03 0.03 51 1019.2
20260501190012 52 24 2.0 10.0 0.00 0.03 0.03 54 1019.1
20260501184553 52 266 1.0 12.0 0.00 0.03 0.03 52 1018.9
20260501183051 51 355 1.0 6.0 0.00 0.03 0.03 54 1019.0
20260501181533 51 49 3.0 7.0 0.00 0.03 0.03 54 1019.1
20260501180040 51 63 0.0 3.0 0.00 0.03 0.03 53 1019.0
20260501174514 51 19 4.0 10.0 0.00 0.03 0.03 57 1019.0
20260501173018 51 345 4.0 7.0 0.00 0.03 0.03 57 1018.9
20260501171552 50 60 0.0 6.0 0.00 0.03 0.03 65 1019.1
20260501170053 50 44 0.0 9.0 0.00 0.03 0.03 63 1019.1
20260501164533 50 41 3.0 9.0 0.00 0.03 0.03 60 1019.1
20260501163033 50 360 0.0 11.0 0.00 0.03 0.03 62 1019.1
20260501161514 49 15 2.0 8.0 0.00 0.03 0.03 72 1019.1
20260501160011 49 5 1.0 9.0 0.00 0.03 0.03 73 1019.2
20260501154601 48 26 4.0 10.0 0.00 0.03 0.03 77 1019.2
20260501153101 47 59 2.0 10.0 0.00 0.03 0.03 80 1019.3
20260501151546 46 22 5.0 10.0 0.00 0.03 0.03 81 1019.4
20260501150036 46 58 4.0 9.0 0.00 0.03 0.03 81 1019.2
20260501144511 45 21 3.0 9.0 0.00 0.03 0.03 84 1019.3
20260501143010 45 22 2.0 8.0 0.00 0.03 0.03 84 1019.4